Theta_e
349 348 350 353 354 353 353 352 352 350 349 345 348 351 352 351 351 352 352 352 352 352 353 353 350 351 352 352 351 352 351 349 349 351 350 350 347 350 349 352 349 348 351
347 348 348 350 352 353 352 351 348 348 347 348 347 349 351 350 353 353 351 352 352 352 351 352 352 349 350 351 350 351 349 350 351 351 353 352 350 349 351 352 348 349 351
346 349 347 348 351 352 352 348 348 348 348 346 346 349 352 353 353 352 350 349 350 348 346 346 346 344 343 344 347 348 348 348 350 349 347 348 349 350 348 346 347 351 351
345 350 347 346 349 352 352 346 348 348 348 345 345 348 348 349 349 346 343 343 343 343 343 341 339 338 337 338 340 342 343 346 349 352 350 346 346 347 348 348 348 350 350
346 348 347 348 347 351 351 345 347 347 346 345 341 342 342 343 339 337 336 336 335 336 336 337 338 340 341 340 336 337 339 341 344 347 348 348 346 346 348 350 348 348 347
346 348 348 351 351 351 343 343 345 344 343 344 346 343 341 339 337 337 337 337 336 337 341 345 350 352 351 348 344 340 335 335 338 342 344 347 346 344 344 350 350 347 347
344 346 349 350 351 351 344 343 345 342 343 343 343 340 339 338 337 336 337 340 342 342 344 347 346 352 352 352 348 347 343 339 340 339 341 343 345 345 343 343 351 351 348
344 344 350 351 351 351 350 347 344 344 343 342 341 343 342 341 341 341 341 344 346 346 345 344 345 347 347 348 348 347 346 345 346 344 344 341 346 347 347 344 344 345 348
345 346 350 350 350 351 351 347 342 341 340 341 343 343 343 341 341 342 342 343 345 348 350 350 349 349 348 348 349 347 346 345 346 345 342 343 344 347 349 347 342 341 343
348 347 347 350 347 350 349 350 350 349 345 343 342 340 342 341 342 345 348 350 350 351 351 351 350 349 349 348 347 347 346 346 348 347 345 344 345 345 348 347 346 343 342
350 351 346 349 346 345 345 349 351 351 349 348 344 341 340 342 344 345 348 349 351 353 351 351 350 348 346 348 347 347 348 346 345 346 347 347 346 343 343 348 347 346 344
349 350 348 344 344 344 344 343 347 346 347 347 343 339 340 344 347 350 353 353 353 353 351 352 354 352 351 351 351 350 349 348 343 346 343 341 342 342 344 344 346 346 346
346 348 347 344 341 342 343 342 343 344 343 341 341 341 344 349 350 352 350 352 354 354 354 354 353 353 353 353 353 351 349 348 348 347 346 346 345 346 346 344 346 346 345
348 346 345 343 342 342 344 343 340 340 339 338 340 342 346 348 350 351 351 353 352 352 350 350 352 352 351 351 350 350 351 350 349 349 349 348 348 348 347 348 345 346 346
348 346 345 345 345 344 342 340 338 338 342 345 346 347 347 348 349 351 351 352 352 353 352 352 350 353 349 352 353 353 352 350 349 348 349 349 349 349 349 349 348 347 347
346 344 343 340 340 340 340 338 337 339 342 344 347 348 349 349 349 351 351 351 352 351 349 347 351 353 352 351 347 351 350 348 347 349 349 349 349 348 349 349 348 348 346
344 342 341 339 340 341 341 343 344 346 347 347 348 348 349 350 350 351 353 353 353 346 345 352 352 352 352 349 352 353 354 353 351 350 349 348 348 349 349 349 349 347 345
346 344 343 341 344 345 347 349 350 350 349 348 350 350 351 352 351 352 352 353 353 352 350 353 352 351 350 352 354 353 352 352 351 350 349 347 348 348 349 349 348 346 345
347 346 346 345 344 346 347 348 349 349 347 348 351 352 352 353 352 352 354 353 353 353 352 352 349 351 353 355 352 351 351 351 351 350 348 349 349 348 348 348 346 346 345
345 345 346 347 346 346 347 347 348 349 346 347 350 353 353 353 353 354 353 353 353 352 353 352 352 353 354 355 352 352 352 351 351 351 350 350 349 350 349 348 347 347 344
338 342 345 345 347 346 347 348 349 347 346 345 350 352 353 353 353 353 353 349 354 354 353 353 352 352 351 355 353 352 352 352 351 351 351 350 350 349 350 349 347 346 342
337 338 341 343 344 346 347 349 348 347 345 343 351 352 351 350 351 353 352 351 351 354 353 350 343 341 348 354 353 348 353 352 351 353 352 352 351 350 351 350 347 345 342
337 338 338 340 342 345 348 349 346 344 346 350 351 352 352 352 352 352 352 353 353 352 352 348 343 348 348 351 355 350 352 352 346 347 351 353 352 352 351 350 348 345 343
337 339 339 339 341 345 348 345 338 343 350 351 351 351 353 352 352 351 353 354 353 352 353 350 341 341 346 348 353 354 353 348 353 354 348 352 352 352 351 350 348 345 343
337 340 340 339 341 344 346 343 339 344 347 348 349 353 353 351 352 352 353 355 355 351 352 352 350 347 350 349 351 354 355 353 351 348 352 340 350 351 351 350 348 346 344
338 340 341 341 341 344 345 344 342 345 346 348 351 353 351 350 355 353 354 355 348 345 353 353 353 353 354 355 354 355 356 353 349 345 344 342 344 347 349 349 348 347 343
Wind_Speed
20 18 17 17 17 16 15 15 15 15 14 14 13 13 12 11 11 12 12 11 11 10 8 7 6 6 6 7 8 8 9 9 7 7 7 7 10 9 10 10 12 12 12
26 21 18 18 17 17 15 15 15 15 14 12 12 11 10 11 11 11 12 11 9 9 8 7 6 6 7 7 6 7 8 9 9 8 7 7 7 8 8 8 11 11 12
28 23 20 19 18 16 15 15 14 13 12 11 11 10 10 10 10 10 9 9 8 7 6 5 5 5 5 5 5 5 6 7 8 7 6 7 6 4 6 6 9 11 12
29 23 22 19 18 15 14 14 13 11 10 9 8 8 8 8 8 7 7 6 4 3 3 3 2 2 2 2 2 2 2 2 4 4 3 5 5 4 4 6 7 10 11
29 24 23 19 18 16 14 13 12 10 9 7 6 6 5 5 5 4 3 2 1 1 1 1 1 2 2 1 1 2 2 2 3 3 2 2 4 4 5 7 8 9 9
28 24 23 18 18 16 15 12 11 10 8 6 5 4 3 2 1 1 2 2 3 3 3 3 4 4 4 4 4 5 5 6 6 5 5 4 3 4 5 6 8 8 10
28 23 20 19 17 16 15 13 10 9 7 7 5 4 3 3 3 3 4 4 3 4 5 4 5 5 6 5 6 6 6 8 7 7 6 5 3 6 6 6 7 8 9
27 24 19 17 16 14 13 12 10 8 6 6 5 4 4 4 4 5 6 5 5 6 6 5 6 6 7 6 7 7 7 8 8 8 8 8 5 5 7 8 9 9 10
24 23 20 18 15 14 13 11 10 9 7 7 6 6 6 5 5 6 6 6 7 8 8 8 8 8 8 8 8 8 8 9 9 9 10 10 10 8 11 12 10 10 10
23 22 19 18 17 15 14 12 10 9 8 8 8 7 7 6 5 6 7 8 9 9 9 9 9 7 7 9 9 8 8 9 10 11 11 12 11 10 10 14 14 12 11
21 21 21 19 19 17 15 13 11 10 10 10 9 8 7 8 8 9 10 11 11 11 9 8 9 8 7 8 10 10 10 11 10 11 10 12 11 11 11 10 14 16 13
22 23 23 21 21 19 17 15 13 13 13 12 11 10 9 9 10 11 12 11 12 10 9 12 12 12 12 13 12 12 10 11 11 11 9 6 7 10 10 8 10 14 17
28 24 25 24 22 21 19 17 15 14 14 13 13 12 11 12 12 9 11 10 9 8 11 11 12 12 12 14 12 11 11 9 8 7 7 8 8 8 7 9 6 6 10
27 27 26 25 24 23 20 19 15 14 14 14 14 14 14 15 14 12 12 9 9 7 6 6 9 11 12 13 11 10 9 9 8 8 7 8 10 10 8 6 6 9 10
27 28 27 25 25 24 21 19 16 15 15 13 13 13 15 15 14 12 12 11 10 9 8 8 9 9 9 10 9 11 12 12 8 7 7 6 7 6 4 5 6 7 8
28 28 27 26 25 23 22 20 18 16 15 16 15 17 16 16 15 13 10 12 9 8 8 9 10 11 9 10 9 9 10 11 9 8 6 3 4 4 4 4 6 7 8
30 27 28 27 26 25 23 20 18 16 15 16 17 17 17 18 17 14 12 10 9 5 6 8 8 7 6 9 8 8 10 9 4 7 5 3 2 3 3 3 5 6 6
30 31 29 28 27 27 25 22 19 17 16 14 12 11 12 13 16 11 10 9 7 6 7 5 5 6 7 7 9 10 10 6 4 6 5 4 2 1 3 3 3 4 6
34 33 32 30 30 28 26 23 21 18 17 15 10 11 10 11 11 8 10 7 8 7 6 4 6 7 7 6 8 9 7 4 5 6 2 3 4 2 3 3 3 4 5
36 36 34 33 31 29 27 25 23 21 20 18 15 14 12 10 7 10 10 9 6 7 6 5 7 6 6 7 7 6 4 3 5 4 6 3 4 5 5 5 5 5 6
34 36 37 35 34 31 27 26 25 25 22 20 17 14 13 12 12 10 10 7 6 8 7 7 9 7 4 5 3 3 5 3 1 4 6 8 7 7 7 8 7 6 6
39 39 37 37 35 34 32 29 29 27 24 19 14 12 14 14 13 11 10 7 8 5 5 8 10 5 2 3 2 2 3 3 5 8 10 12 11 10 11 10 8 7 5
32 40 41 39 37 36 34 30 23 17 17 15 14 13 11 15 16 13 11 10 9 8 7 8 6 1 3 2 2 1 1 2 4 5 9 13 13 13 12 12 10 9 8
39 37 41 40 39 38 34 29 25 22 19 18 15 11 12 9 11 13 13 10 9 10 9 9 6 6 4 5 4 3 3 1 1 3 4 8 15 15 15 15 13 12 11
31 34 40 40 37 39 35 31 26 24 20 19 15 12 11 10 10 13 15 14 14 10 11 11 9 6 7 6 6 5 3 3 5 2 3 5 10 16 17 18 16 15 14
28 31 36 39 38 38 35 32 29 25 22 20 17 14 11 12 10 12 13 13 11 15 13 14 11 9 9 9 9 9 9 6 4 5 3 5 5 8 11 18 19 17 15
Wind_Direction
159 148 147 141 140 138 133 135 134 131 128 127 126 129 129 129 122 116 116 113 114 116 120 116 113 101 94 87 87 100 100 101 105 103 105 106 120 124 128 128 132 140 135
152 151 153 146 147 140 141 142 139 134 130 131 131 132 128 121 116 114 114 113 114 112 113 114 107 94 91 88 90 83 93 105 103 104 102 100 118 136 127 142 142 140 143
153 154 154 153 150 146 144 145 141 136 134 134 134 132 124 122 122 121 122 121 116 117 114 110 96 89 82 84 85 91 99 103 107 110 124 133 134 138 153 153 145 147 149
155 156 156 162 155 154 148 148 146 142 135 137 139 127 126 125 123 131 129 122 125 130 121 107 85 70 74 67 73 77 110 131 120 131 141 142 159 170 184 175 165 160 163
158 159 161 166 163 162 160 158 150 147 147 145 136 135 136 133 138 132 128 134 200 226 254 338 327 326 332 334 288 263 253 231 199 219 250 225 199 181 186 182 185 177 174
162 165 165 168 168 169 172 167 163 163 161 163 162 162 167 178 200 262 277 268 273 291 310 321 316 315 305 286 267 249 247 243 239 247 265 246 247 219 202 203 198 198 199
169 169 168 175 175 176 177 177 176 173 171 178 177 193 218 252 271 273 271 280 302 303 310 313 293 287 278 270 264 259 250 248 243 240 236 244 244 234 226 226 224 219 215
175 175 175 182 183 184 183 183 188 190 192 198 207 230 255 267 274 277 282 291 295 293 294 289 288 281 273 263 258 253 245 247 242 241 244 240 239 244 242 234 229 229 231
178 179 182 187 191 193 193 198 203 205 210 223 238 252 265 275 278 286 293 300 298 295 294 292 290 283 277 271 260 253 252 252 245 244 245 241 242 256 272 237 236 233 226
182 187 187 192 196 199 203 209 218 226 230 239 249 257 264 267 277 286 295 299 301 302 298 297 293 288 291 282 276 272 266 257 258 254 252 255 258 254 257 239 234 242 231
189 193 194 196 200 205 213 217 226 234 241 247 252 251 257 266 280 289 292 298 296 305 309 299 296 295 293 277 279 284 282 279 272 264 264 261 258 263 257 237 232 238 239
198 203 204 206 208 212 220 229 229 233 239 244 245 248 256 271 279 287 297 300 300 298 286 288 287 287 288 285 282 274 283 285 273 265 270 273 277 272 268 252 242 241 240
203 208 212 213 215 220 224 230 234 240 243 243 241 247 259 271 284 297 297 313 308 301 291 279 285 288 280 286 289 276 274 293 299 292 284 278 285 283 288 282 271 285 261
206 212 213 217 221 223 224 229 235 239 240 242 246 255 265 272 283 299 299 321 298 301 328 324 314 308 303 300 286 284 283 297 299 307 315 311 297 296 294 305 266 286 284
206 212 213 213 217 221 223 225 230 232 236 245 254 261 268 277 287 299 307 310 305 309 318 317 327 319 326 311 296 278 278 283 287 292 305 321 325 326 323 266 261 287 294
207 211 210 211 213 216 220 220 222 231 242 252 260 265 265 277 282 287 293 298 310 311 309 311 319 311 312 317 306 295 290 282 272 259 261 283 320 343 330 284 286 294 305
210 208 210 209 211 213 215 217 225 235 250 259 263 270 274 270 271 276 278 293 314 335 318 317 329 351 331 329 325 310 303 297 249 223 220 217 252 289 277 270 295 303 307
211 211 211 210 212 215 218 220 226 241 254 257 262 267 273 265 254 265 273 290 316 320 320 328 340 348 327 323 313 302 297 282 207 180 203 194 234 255 282 308 306 312 316
217 216 214 214 216 217 220 226 231 240 244 242 262 267 272 264 253 247 265 283 304 299 308 298 324 326 323 332 329 294 269 245 160 176 126 237 238 267 311 300 279 317 322
221 220 219 218 221 223 226 230 233 239 238 242 249 269 267 265 272 261 272 288 287 267 278 285 320 329 330 344 359 40 106 136 168 188 224 324 269 276 300 307 313 325 324
222 222 220 219 222 223 223 225 221 227 235 239 244 267 274 274 261 264 270 266 276 262 270 276 297 299 308 342 331 23 52 57 210 245 257 263 292 269 281 287 309 320 323
215 221 222 222 223 222 219 218 219 228 238 236 247 263 273 270 270 265 261 262 248 260 258 284 296 289 276 9 354 30 10 329 274 266 265 260 281 269 269 280 284 299 299
210 216 220 222 221 218 217 220 227 230 222 223 238 260 294 272 256 261 260 268 257 252 273 289 305 236 320 314 5 105 79 258 332 302 273 261 274 271 267 265 269 282 289
215 214 216 219 220 218 215 218 220 215 212 226 242 263 297 298 255 257 250 266 266 268 280 284 276 282 289 324 338 319 291 347 284 328 330 276 263 261 259 258 263 270 274
205 208 213 215 217 220 214 218 220 222 224 226 236 261 287 290 278 255 250 248 252 255 251 274 278 277 270 282 288 298 294 277 257 188 274 299 274 266 260 257 261 267 270
198 201 207 213 213 218 216 218 219 220 220 224 229 245 265 272 279 263 251 240 265 251 253 255 267 264 259 261 276 277 274 259 252 219 234 273 267 302 276 258 258 260 261